[Iaude] MPEC R100: 2019 RE3 [a=1.02,e=0.38,i=23.4,H=22.5]

mpec at marsden.cfa.harvard.edu mpec at marsden.cfa.harvard.edu
Tue Sep 10 11:32:15 EDT 2019


M.P.E.C. 2019-R100                           Issued 2019 September 10, 15:30 UT

     The Minor Planet Electronic Circulars contain information on unusual
         minor planets and routine data on comets.  They are published
    on behalf of Division F of the International Astronomical Union by the
          Minor Planet Center, Smithsonian Astrophysical Observatory,
                          Cambridge, MA 02138, U.S.A.

             Prepared using the Tamkin Foundation Computer Network

                              MPC at CFA.HARVARD.EDU
            URL https://www.minorplanetcenter.net/    ISSN 1523-6714

                                    2019 RE3                                    


Observations:
     K19R03E* C2019 09 06.56611 02 00 06.449+02 28 04.46         22.0 wUER100F51
     K19R03E  C2019 09 06.57749 02 00 05.585+02 28 31.27         21.8 wUER100F51
     K19R03E  C2019 09 06.58880 02 00 04.731+02 28 57.59         21.9 wUER100F51
     K19R03E KC2019 09 07.34415701 59 14.92 +02 58 56.5          22.4 VuER100H21
     K19R03E KC2019 09 07.35064701 59 14.40 +02 59 12.5          22.3 VuER100H21
     K19R03E KC2019 09 07.35551501 59 14.04 +02 59 24.6          22.0 VuER100H21
     K19R03E |C2019 09 08.36267 01 57 58.72 +03 42 05.6          21.5 GUER100807
     K19R03E |C2019 09 08.37003 01 57 58.06 +03 42 24.7          21.7 GUER100807
     K19R03E |C2019 09 08.37710 01 57 57.45 +03 42 42.4          21.6 GUER100807
     K19R03E KC2019 09 08.44151 01 57 52.87 +03 44 59.7          21.5 RoER100291
     K19R03E KC2019 09 08.44599 01 57 52.42 +03 45 11.1          21.5 RoER100291
     K19R03E KC2019 09 08.45048 01 57 52.04 +03 45 23.0          22.0 RoER100291
     K19R03E KC2019 09 10.33914801 55 05.43 +05 11 21.3          21.2 VuER100H21
     K19R03E KC2019 09 10.35317001 55 03.91 +05 12 01.6          21.5 VuER100H21

Observer details:
291 LPL/Spacewatch II.  Observer R. A. Mastaler.  1.8-m f/2.7 reflector + CCD.
807 Cerro Tololo Observatory, La Serena.  Observers T. Linder, R. Holmes.  
    1.00-m f/10.0 astrograph + CCD.
F51 Pan-STARRS 1, Haleakala.  Observers J. Bulger, T. Lowe, A. Schultz, M. 
   Willman.  Measurers K. Chambers, S. Chastel, T. de Boer, L. Denneau, J. 
   Fairlamb, H. Flewelling, M. Huber, C.-C. Lin, E. Magnier, Y. Ramanjooloo, R. 
   Wainscoat, R. Weryk.  1.8-m Ritchey-Chretien + CCD.
H21 Astronomical Research Observatory, Westfield.  Observer R. Holmes.  
    Measurers S. Foglia, L. Buzzi, T. Linder, R. Holmes.  1.3-m f/4.0 
   astrograph + CCD, 0.81-m f/4.0 astrograph + CCD.

Orbital elements:
2019 RE3                                                 Earth MOID = 0.1402 AU
Epoch 2019 Apr. 27.0 TT = JDT 2458600.5                 Bell
M 126.26923              (2000.0)            P               Q
n   0.95011874     Peri.  135.85799     -0.70660525     -0.70757535
a   1.0247489      Node   359.02194     +0.48710900     -0.47943336
e   0.3767005      Incl.   23.44975     +0.51325807     -0.51911538
P   1.04           H   22.5           G   0.15           U   8
Residuals in seconds of arc
190906 F51  0.2+  0.1-    190907 H21  0.1+  0.2+    190908 291  0.3-  0.0
190906 F51  0.0   0.1+    190908 807  0.2+  0.0     190908 291  0.0   0.3+
190906 F51  0.2-  0.1-    190908 807  0.1+  0.1+    190910 H21  0.1-  0.0
190907 H21  0.2-  0.1-    190908 807  0.3+  0.4-    190910 H21  0.1-  0.1-
190907 H21  0.3-  0.0     190908 291  0.4+  0.2+

Ephemeris:
2019 RE3                 a,e,i = 1.02, 0.38, 23                  q = 0.6387
Date    TT    R. A. (2000) Decl.     Delta      r    Elong.  Phase     V
2019 08 11    01 58 55.7 -07 50 54   0.5806  1.3421   111.8    44.5    23.7
...
2019 08 26    02 05 18.4 -03 17 46   0.4277  1.2940   122.9    41.0    22.8
...
2019 09 03    02 03 06.0 +00 21 01   0.3496  1.2631   130.2    37.6    22.2
...
2019 09 09    01 57 07.3 +04 09 41   0.2941  1.2376   136.6    34.0    21.7
2019 09 10    01 55 37.9 +04 55 29   0.2852  1.2331   137.7    33.3    21.6
2019 09 11    01 53 58.4 +05 43 57   0.2764  1.2286   138.9    32.6    21.5
...
2019 09 17    01 39 32.3 +11 43 06   0.2268  1.2004   146.2    27.8    20.9
...
2019 09 25    01 01 01.0 +23 52 04   0.1728  1.1598   153.0    23.1    20.1
...
2019 10 10    21 30 03.7 +50 48 16   0.1449  1.0745   118.0    55.2    20.5

A. U. Tomatic                (C) Copyright 2019 MPC           M.P.E.C. 2019-R100




More information about the Iaude mailing list